This demonstration page uses our WeatherBlox Daily Observations layout. Learn more.

Left ArrowRight Arrow

40.92501, -98.34201

Hourly Observations for February 6, 2022

Temp ( °F °C ) Dew Point ( °F °C ) Humidity (%) Winds ( mph kmh ) Pressure ( in mb ) Visibility ( mi km ) Precip ( " mm )
12:53 am 00:53 Mostly Clear 23 -5 12 -11.1 63 63 WSW 5 7 30.06 1018 10 16 0.00 0.00
1:53 am 01:53 Clear 23 -5 12 -11.1 63 63 NW 7 11 30.07 1018 10 16 0.00 0.00
2:53 am 02:53 Mostly Cloudy 30 -1.1 16 -8.9 56 56 NW 8 13 30.08 1019 10 16 0.00 0.00
3:53 am 03:53 Mostly Cloudy 39 3.9 22 -5.6 50 50 NNW 15 24 30.09 1019 10 16 0.00 0.00
4:53 am 04:53 Clear 36 2.2 22 -5.6 57 57 NNW 14 22 30.11 1020 10 16 0.00 0.00
5:53 am 05:53 Clear 36 2.2 23 -5 59 59 NNW 16 26 30.15 1021 10 16 0.00 0.00
6:53 am 06:53 Partly Cloudy 35 1.7 24 -4.4 64 64 NW 13 20 30.18 1022 10 16 0.00 0.00
7:53 am 07:53 Sunny 35 1.7 26 -3.3 70 70 NNW 15 24 30.22 1023 10 16 0.00 0.00
8:53 am 08:53 Sunny 38 3.3 27 -2.8 65 65 NNW 16 26 30.27 1025 10 16 0.00 0.00
9:53 am 09:53 Sunny 41 5 26 -3.3 55 55 NNW 25 41 30.29 1026 10 16 0.00 0.00
10:53 am 10:53 Sunny 40 4.4 20 -6.7 45 45 NNW 33 54 30.33 1027 10 16 0.00 0.00
11:53 am 11:53 Sunny 40 4.4 18 -7.8 41 41 NNW 28 44 30.35 1028 10 16 0.00 0.00
12:53 pm 12:53 Sunny 43 6.1 17 -8.3 35 35 NNW 28 44 30.32 1027 10 16 0.00 0.00
1:53 pm 13:53 Sunny 45 7.2 18 -7.8 34 34 NNW 24 39 30.31 1027 10 16 0.00 0.00
2:53 pm 14:53 Mostly Sunny 45 7.2 19 -7.2 35 35 NNW 23 37 30.30 1026 10 16 0.00 0.00
3:53 pm 15:53 Sunny 44 6.7 18 -7.8 35 35 NNW 21 33 30.30 1026 10 16 0.00 0.00
4:53 pm 16:53 Sunny 42 5.6 19 -7.2 40 40 NNW 21 33 30.32 1027 10 16 0.00 0.00
5:53 pm 17:53 Sunny 35 1.7 17 -8.3 48 48 N 8 13 30.33 1027 10 16 0.00 0.00
6:53 pm 18:53 Clear 30 -1.1 16 -8.9 56 56 Calm 30.35 1028 10 16 0.00 0.00
7:53 pm 19:53 Clear 25 -3.9 14 -10 63 63 SSW 6 9 30.37 1028 10 16 0.00 0.00
8:53 pm 20:53 Clear 28 -2.2 16 -8.9 60 60 SSW 7 11 30.36 1028 10 16 0.00 0.00
9:53 pm 21:53 Mostly Clear 27 -2.8 16 -8.9 63 63 SSW 7 11 30.36 1028 10 16 0.00 0.00
10:53 pm 22:53 Cloudy 29 -1.7 18 -7.8 63 63 SSW 8 13 30.35 1028 10 16 0.00 0.00
11:53 pm 23:53 Cloudy 32 0 19 -7.2 59 59 SSW 9 15 30.32 1027 10 16 0.00 0.00

Powered by AerisWeather